Friday, January 19, 2018, 10:36 AM EST
Back to Local

KDUJ, Du Bois-jefferson County

Location: Reynoldsville, PA, United States Lat: 41.183
Local Time: 10:36 AM EST (15:36 GMT) Lon: -78.883
Time Zone: US/Eastern Elev: 1820 ft

Show me the last for .
Show Coded

Time T Td Feel RH Dir Speed Gust Alt SLP Vis Weather Sky Remarks
2018-01-19 09:53 22 11 6 62 230° 15 23 30.02 30.10 10 CLR None
2018-01-19 08:53 19 9 5 64 240° 15 - 30.01 30.10 10 CLR None
2018-01-19 07:53 18 8 1 64 230° 13 22 29.99 30.08 10 CLR None
2018-01-19 06:53 18 8 5 64 230° 13 - 30.00 30.09 10 CLR 6-hr Min Temp (7am): 17.1°F
6-hr Max Temp (7am): 19.9°F
2018-01-19 05:53 18 8 4 64 230° 14 - 30.00 30.08 10 CLR None
2018-01-19 04:53 18 8 4 64 230° 15 - 29.99 30.08 10 CLR None
2018-01-19 03:53 19 8 6 61 230° 14 - 29.99 30.07 10 CLR None
2018-01-19 02:53 18 8 5 64 240° 13 - 30.00 30.08 10 CLR None
2018-01-19 01:53 19 8 2 61 240° 16 24 29.98 30.06 10 CLR Peak wind: 29 mph (26 kts) from 250° at 31 min
2018-01-19 00:53 19 8 6 61 230° 14 - 29.98 30.07 10 CLR 6-hr Min Temp (1am): 18.0°F
6-hr Max Temp (1am): 19.9°F
2018-01-18 23:53 20 9 5 61 230° 18 - 30.00 30.09 10 CLR 24-hr Min Temp (12am): 3.9°F
24-hr Max Temp (12am): 21.0°F
2018-01-18 22:53 20 9 3 61 220° 16 23 30.01 30.10 10 CLR None
2018-01-18 21:53 20 9 4 61 230° 20 - 30.02 30.11 10 CLR None
2018-01-18 20:53 19 8 7 61 230° 12 - 30.03 30.13 10 CLR None
2018-01-18 19:53 19 8 6 61 240° 13 - 30.03 30.13 10 CLR None
2018-01-18 18:53 19 8 6 61 240° 13 - 30.02 30.12 10 CLR 6-hr Min Temp (7pm): 16.0°F
6-hr Max Temp (7pm): 21.0°F
2018-01-18 17:53 18 8 5 64 240° 12 - 30.01 30.11 10 CLR None
2018-01-18 16:53 20 9 5 61 240° 18 - 30.00 30.10 10 CLR None
2018-01-18 15:53 20 9 5 61 250° 17 - 30.01 30.11 10 CLR None
2018-01-18 14:53 20 8 5 59 240° 18 - 30.01 30.11 10 CLR None
2018-01-18 13:53 18 8 4 64 240° 15 - 30.01 30.12 10 CLR None
2018-01-18 12:53 16 7 -3 66 250° 18 25 30.03 30.14 10 CLR Peak wind: 29 mph (26 kts) from 250° at 02 min
6-hr Min Temp (1pm): 5.0°F
6-hr Max Temp (1pm): 16.0°F
2018-01-18 12:00 15 6 -5 66 260° 21 28 30.06 - 6 HZ SCT019 Peak wind: 29 mph (26 kts) from 260° at 54 min
2018-01-18 11:53 14 6 -7 70 250° 24 30 30.06 30.17 6 HZ BKN019 Peak wind: 31 mph (27 kts) from 260° at 58 min
2018-01-18 11:07 13 5 -9 69 250° 21 31 30.09 - 8 BKN018 Peak wind: 31 mph (27 kts) from 260° at 58 min
2018-01-18 10:53 12 5 -10 72 250° 21 31 30.09 30.20 5 HZ SCT016 Peak wind: 33 mph (29 kts) from 250° at 25 min

Support USWX by starting your Amazon purchase here.